STARLINK-37989, 69718

Orbit data source: Space-Track

STARLINK-37989, 69718 is a payload satellite owned by SpaceX/Seattle (US) in SSO that was launched on Sun, 28 Jun 2026 UTC via an FALCON 9 launch vehicle from the Air Force Western Test Range (AFWTR). Payload-class satellites include a variety of spacecraft equipped with specific instruments for various scientific and technological missions. These include communications satellites like Starlink; space stations such as the ISS; scientific satellites like the Hubble; Earth observation satellites from companies like Planet Labs, Umbra, and HawkEye 360; GPS; miniature CubeSats for education and research; and military/defense satellites.

Loading next visibility...
Identifier
69718, 2026-147Q
Orbit
SSO
Country
Flag of USUS
Related business
Manufacturer
SpaceX/Seattle
Mission
Operational Commercial Communications
Bus & Motor
STARLINK V2MO, Unknown motor
Mass
575 kg wet, ~530 kg dry
Launch date (UTC)
2026-06-28 (2 months ago)
Launch vehicle
FALCON 9
Launch site
Air Force Western Test Range (AFWTR)
Object type
Payload
Rocket body
Debris
Shape & HBR
Box + 1 Pan, 17.7 m
Radar Cross Section
41.120 m², Large (>1 m²)

Expand to show TLE details & history
Last TLE update: 1 day ago

TLE from 1 day ago
0 STARLINK-37989
1 69718U 26147Q   26236.34669696  .00014807  00000-0  45996-3 0  9995
2 69718  97.2861 273.1126 0000789 108.8010 251.3318 15.33452479 10074
Epoch: 2026-08-24T08:19Z
TLE epoch observation values (Epoch: 2026-08-24T08:19:14.617Z)
Latitude
-0.00005°
Longitude
175.67199°
Altitude
468.806 km
Speed
7.632 km/s
True Right ascension
18h 12m 27s
True Declination
0° 00' 00"
Sunlit
Object was in full shadow at epoch
Visualization orbit readout
Latitude
Unknown
Longitude
Unknown
Altitude
Unknown
Speed
Unknown
Apparent Right ascension
Unknown
Apparent Declination
Unknown
Sunlit
N/A
Visualization observer readout
Local Sidereal Time
01:49:11
Azimuth
Unknown
Elevation
Unknown
Doppler factor
Unknown
Orbital elements
Apogee altitude
463.003 km
Perigee altitude
461.924 km
Semi-major axis
6,840.601 km
Eccentricity
0.00008
Inclination
97.2861°
RAAN
273.1126°
Arg. of periapsis
108.801°
True anomaly
251.32323°
Mean anomaly
251.3318°
Eccentric anomaly
251.32752°
Mean motion
3.83621 °/min
Orbital period
93.84 mins
BSTAR
0.00045996
Loading maneuver chart data...
Computing Atmospheric mass density...
Loading historical data...
Loading historical data...
Loading historical data...
Loading historical data...
Loading historical data...
Loading historical data...
Loading historical data...

Documentation

Showing up to 5 results
|